MDT,Max TemperatureF,Mean TemperatureF,Min TemperatureF,Max Dew PointF,MeanDew PointF,Min DewpointF,Max Humidity, Mean Humidity, Min Humidity, Max Sea Level PressureIn, Mean Sea Level PressureIn, Min Sea Level PressureIn, Max VisibilityMiles, Mean VisibilityMiles, Min VisibilityMiles, Max Wind SpeedMPH, Mean Wind SpeedMPH, Max Gust SpeedMPH,PrecipitationIn, CloudCover, Events, WindDirDegrees
2013-9-1,86,69,52,52,44,40,72,47,22,30.09,30.03,29.97,10,10,10,13,7,17,0.00,0,,120
2013-9-2,94,75,55,56,51,44,67,46,24,30.04,29.96,29.88,10,10,10,22,13,29,0.00,0,,167
2013-9-3,98,79,59,55,49,47,62,41,20,29.96,29.90,29.85,10,10,10,18,6,24,0.00,1,,178
2013-9-4,99,81,62,61,55,50,67,44,21,30.23,30.01,29.91,10,10,10,30,10,39,0.01,1,Rain-Thunderstorm,108
2013-9-5,96,82,67,61,55,45,76,49,22,30.20,30.01,29.91,10,10,10,22,9,25,0.01,1,Rain-Thunderstorm,137
2013-9-6,102,84,65,57,51,45,73,45,17,30.07,29.94,29.83,10,10,5,26,9,32,0.02,1,Rain-Thunderstorm,335
2013-9-7,100,79,57,57,48,39,86,50,13,29.97,29.90,29.84,10,10,10,17,8,24,0.00,0,,169
2013-9-8,100,81,61,46,43,40,52,33,14,29.88,29.77,29.66,10,10,10,25,12,35,0.00,0,,201
2013-9-9,89,76,63,57,53,51,75,50,28,29.95,29.79,29.72,10,10,10,30,10,37,0.00,1,Thunderstorm,343
2013-9-10,76,69,61,61,59,54,93,71,49,30.15,30.05,29.91,10,10,7,15,7,18,0.03,6,Rain,16
2013-9-11,69,65,61,63,59,56,93,85,76,30.28,30.17,30.09,10,10,7,15,9,20,0.05,7,Rain,71
2013-9-12,72,67,61,63,60,51,100,75,49,30.34,30.25,30.14,10,7,2,21,13,25,0.03,7,Rain,87
2013-9-13,62,60,57,61,57,55,100,95,90,30.27,30.09,29.92,10,3,0,29,19,35,0.29,8,Fog-Rain,137
2013-9-14,82,70,57,63,59,55,97,73,48,30.06,29.92,29.76,10,6,0,33,8,47,2.43,6,Fog-Rain-Thunderstorm,192
2013-9-15,65,60,55,59,55,51,97,80,63,30.31,30.16,29.91,10,8,2,21,12,26,0.32,7,Rain,54
2013-9-16,63,58,53,56,53,51,100,89,78,30.31,30.19,30.01,10,7,2,23,15,28,0.01,8,Rain,149
2013-9-17,88,72,56,59,54,47,100,62,24,30.02,29.87,29.68,10,8,0,21,10,26,0.00,2,Fog,216
2013-9-18,91,74,56,56,51,45,86,54,22,29.86,29.69,29.63,10,10,6,40,9,49,0.10,1,Rain-Thunderstorm,279
2013-9-19,68,57,46,55,45,36,84,58,32,30.14,29.99,29.72,10,10,10,21,11,26,0.02,2,Rain-Thunderstorm,356
2013-9-20,75,57,39,46,42,31,92,57,22,30.16,30.06,29.95,10,10,9,15,3,20,0.00,0,,179
2013-9-21,87,69,50,53,48,40,89,54,19,29.94,29.81,29.68,10,10,10,21,10,26,0.00,0,,206
2013-9-22,87,70,52,56,52,44,93,59,25,29.66,29.56,29.43,10,10,3,48,11,64,0.11,2,Rain-Thunderstorm,203
2013-9-23,58,52,46,54,51,45,96,88,80,29.98,29.65,29.40,10,6,1,32,14,41,2.28,7,Rain,351
2013-9-24,73,58,42,48,43,38,93,62,31,30.08,29.98,29.82,10,10,10,15,9,18,0.00,0,,231
2013-9-25,82,64,46,48,43,39,76,51,25,29.80,29.58,29.39,10,10,10,24,14,32,0.00,0,,165
2013-9-26,76,62,47,52,47,43,86,62,38,29.68,29.62,29.46,10,10,10,22,14,28,0.00,0,,17
2013-9-27,54,48,41,48,42,39,92,84,76,29.99,29.84,29.64,10,8,2,23,14,26,0.29,7,Rain-Thunderstorm,353
2013-9-28,66,52,37,41,35,31,92,61,29,30.09,30.05,29.97,10,10,10,29,13,35,0.00,0,,278
2013-9-29,77,58,38,44,36,28,85,52,18,30.05,29.91,29.79,10,10,10,15,9,20,0.00,0,,240
2013-9-30,83,64,44,45,40,35,76,47,18,29.81,29.74,29.65,10,10,10,23,11,31,0.00,0,,234